owner,sensor,date,latitude,longitude,relative_humidity,qcFlag 
COMPS,ioos:station:USF.COMPS:FHP:1,2019-01-01T00:00:00Z,28.1530,-82.8010,81.95,1111122 
COMPS,ioos:station:USF.COMPS:FHP:1,2019-01-01T00:06:00Z,28.1530,-82.8010,83.41,1111122 
COMPS,ioos:station:USF.COMPS:FHP:1,2019-01-01T00:12:00Z,28.1530,-82.8010,84.14,1111122 
COMPS,ioos:station:USF.COMPS:FHP:1,2019-01-01T00:18:00Z,28.1530,-82.8010,84.29,1111122 
COMPS,ioos:station:USF.COMPS:FHP:1,2019-01-01T00:24:00Z,28.1530,-82.8010,84.86,1111122 
COMPS,ioos:station:USF.COMPS:FHP:1,2019-01-01T00:30:00Z,28.1530,-82.8010,85.85,1111122 
COMPS,ioos:station:USF.COMPS:FHP:1,2019-01-01T00:36:00Z,28.1530,-82.8010,85.66,1111122 
COMPS,ioos:station:USF.COMPS:FHP:1,2019-01-01T00:42:00Z,28.1530,-82.8010,84.84,1111122 
COMPS,ioos:station:USF.COMPS:FHP:1,2019-01-01T00:48:00Z,28.1530,-82.8010,85.1,1111122 
COMPS,ioos:station:USF.COMPS:FHP:1,2019-01-01T00:54:00Z,28.1530,-82.8010,85.75,1111122 
COMPS,ioos:station:USF.COMPS:FHP:1,2019-01-01T01:00:00Z,28.1530,-82.8010,85.96,1111122 
COMPS,ioos:station:USF.COMPS:FHP:1,2019-01-01T01:06:00Z,28.1530,-82.8010,86.07,1111122 
COMPS,ioos:station:USF.COMPS:FHP:1,2019-01-01T01:12:00Z,28.1530,-82.8010,86.11,1111122 
COMPS,ioos:station:USF.COMPS:FHP:1,2019-01-01T01:18:00Z,28.1530,-82.8010,86.73,1111122 
COMPS,ioos:station:USF.COMPS:FHP:1,2019-01-01T01:24:00Z,28.1530,-82.8010,87.68,1111122 
COMPS,ioos:station:USF.COMPS:FHP:1,2019-01-01T01:30:00Z,28.1530,-82.8010,87.96,1111122 
COMPS,ioos:station:USF.COMPS:FHP:1,2019-01-01T01:36:00Z,28.1530,-82.8010,88.46,1111122 
COMPS,ioos:station:USF.COMPS:FHP:1,2019-01-01T01:42:00Z,28.1530,-82.8010,88.98,1111122 
COMPS,ioos:station:USF.COMPS:FHP:1,2019-01-01T01:48:00Z,28.1530,-82.8010,89.44,1111122 
COMPS,ioos:station:USF.COMPS:FHP:1,2019-01-01T01:54:00Z,28.1530,-82.8010,89.66,1111122 
COMPS,ioos:station:USF.COMPS:FHP:1,2019-01-01T02:00:00Z,28.1530,-82.8010,89.6,1111122 
COMPS,ioos:station:USF.COMPS:FHP:1,2019-01-01T02:06:00Z,28.1530,-82.8010,89.49,1111122 
COMPS,ioos:station:USF.COMPS:FHP:1,2019-01-01T02:12:00Z,28.1530,-82.8010,89.45,1111122 
COMPS,ioos:station:USF.COMPS:FHP:1,2019-01-01T02:18:00Z,28.1530,-82.8010,89.57,1111122 
COMPS,ioos:station:USF.COMPS:FHP:1,2019-01-01T02:24:00Z,28.1530,-82.8010,89.51,1111122 
COMPS,ioos:station:USF.COMPS:FHP:1,2019-01-01T02:30:00Z,28.1530,-82.8010,89.34,1111122 
COMPS,ioos:station:USF.COMPS:FHP:1,2019-01-01T02:36:00Z,28.1530,-82.8010,89.37,1111122 
COMPS,ioos:station:USF.COMPS:FHP:1,2019-01-01T02:42:00Z,28.1530,-82.8010,89.47,1111122 
COMPS,ioos:station:USF.COMPS:FHP:1,2019-01-01T02:48:00Z,28.1530,-82.8010,89.63,1111122 
COMPS,ioos:station:USF.COMPS:FHP:1,2019-01-01T02:54:00Z,28.1530,-82.8010,89.76,1111122 
COMPS,ioos:station:USF.COMPS:FHP:1,2019-01-01T03:00:00Z,28.1530,-82.8010,89.96,1111122 
COMPS,ioos:station:USF.COMPS:FHP:1,2019-01-01T03:06:00Z,28.1530,-82.8010,89.98,1111122 
COMPS,ioos:station:USF.COMPS:FHP:1,2019-01-01T03:12:00Z,28.1530,-82.8010,89.78,1111122 
COMPS,ioos:station:USF.COMPS:FHP:1,2019-01-01T03:18:00Z,28.1530,-82.8010,89.49,1111122 
COMPS,ioos:station:USF.COMPS:FHP:1,2019-01-01T03:24:00Z,28.1530,-82.8010,89.49,1111122 
COMPS,ioos:station:USF.COMPS:FHP:1,2019-01-01T03:30:00Z,28.1530,-82.8010,89.58,1111122 
COMPS,ioos:station:USF.COMPS:FHP:1,2019-01-01T03:36:00Z,28.1530,-82.8010,89.71,1111122 
COMPS,ioos:station:USF.COMPS:FHP:1,2019-01-01T03:42:00Z,28.1530,-82.8010,89.8,1111122 
COMPS,ioos:station:USF.COMPS:FHP:1,2019-01-01T03:48:00Z,28.1530,-82.8010,89.69,1111122 
COMPS,ioos:station:USF.COMPS:FHP:1,2019-01-01T03:54:00Z,28.1530,-82.8010,89.88,1111122 
COMPS,ioos:station:USF.COMPS:FHP:1,2019-01-01T04:00:00Z,28.1530,-82.8010,89.71,1111122 
COMPS,ioos:station:USF.COMPS:FHP:1,2019-01-01T04:06:00Z,28.1530,-82.8010,88.92,1111122 
COMPS,ioos:station:USF.COMPS:FHP:1,2019-01-01T04:12:00Z,28.1530,-82.8010,88.08,1111122 
COMPS,ioos:station:USF.COMPS:FHP:1,2019-01-01T04:18:00Z,28.1530,-82.8010,87.55,1111122 
COMPS,ioos:station:USF.COMPS:FHP:1,2019-01-01T04:24:00Z,28.1530,-82.8010,87.03,1111122 
COMPS,ioos:station:USF.COMPS:FHP:1,2019-01-01T04:30:00Z,28.1530,-82.8010,86.67,1111122 
COMPS,ioos:station:USF.COMPS:FHP:1,2019-01-01T04:36:00Z,28.1530,-82.8010,86.74,1111122 
COMPS,ioos:station:USF.COMPS:FHP:1,2019-01-01T04:42:00Z,28.1530,-82.8010,86.77,1111122 
COMPS,ioos:station:USF.COMPS:FHP:1,2019-01-01T04:48:00Z,28.1530,-82.8010,86.53,1111122 
COMPS,ioos:station:USF.COMPS:FHP:1,2019-01-01T04:54:00Z,28.1530,-82.8010,86.31,1111122 
COMPS,ioos:station:USF.COMPS:FHP:1,2019-01-01T05:00:00Z,28.1530,-82.8010,86.88,1111122 
COMPS,ioos:station:USF.COMPS:FHP:1,2019-01-01T05:06:00Z,28.1530,-82.8010,87.04,1111122 
COMPS,ioos:station:USF.COMPS:FHP:1,2019-01-01T05:12:00Z,28.1530,-82.8010,87.06,1111122 
COMPS,ioos:station:USF.COMPS:FHP:1,2019-01-01T05:18:00Z,28.1530,-82.8010,87.04,1111122 
COMPS,ioos:station:USF.COMPS:FHP:1,2019-01-01T05:24:00Z,28.1530,-82.8010,86.92,1111122 
COMPS,ioos:station:USF.COMPS:FHP:1,2019-01-01T05:30:00Z,28.1530,-82.8010,87.2,1111122 
COMPS,ioos:station:USF.COMPS:FHP:1,2019-01-01T05:36:00Z,28.1530,-82.8010,87.31,1111122 
COMPS,ioos:station:USF.COMPS:FHP:1,2019-01-01T05:42:00Z,28.1530,-82.8010,87.55,1111122 
COMPS,ioos:station:USF.COMPS:FHP:1,2019-01-01T05:48:00Z,28.1530,-82.8010,87.35,1111122 
COMPS,ioos:station:USF.COMPS:FHP:1,2019-01-01T05:54:00Z,28.1530,-82.8010,87.76,1111122 
COMPS,ioos:station:USF.COMPS:FHP:1,2019-01-01T06:00:00Z,28.1530,-82.8010,87.51,1111122 
COMPS,ioos:station:USF.COMPS:FHP:1,2019-01-01T06:06:00Z,28.1530,-82.8010,87.04,1111122 
COMPS,ioos:station:USF.COMPS:FHP:1,2019-01-01T06:12:00Z,28.1530,-82.8010,87.01,1111122 
COMPS,ioos:station:USF.COMPS:FHP:1,2019-01-01T06:18:00Z,28.1530,-82.8010,87.09,1111122 
COMPS,ioos:station:USF.COMPS:FHP:1,2019-01-01T06:24:00Z,28.1530,-82.8010,87.32,1111122 
COMPS,ioos:station:USF.COMPS:FHP:1,2019-01-01T06:30:00Z,28.1530,-82.8010,87.08,1111122 
COMPS,ioos:station:USF.COMPS:FHP:1,2019-01-01T06:36:00Z,28.1530,-82.8010,87.04,1111122 
COMPS,ioos:station:USF.COMPS:FHP:1,2019-01-01T06:42:00Z,28.1530,-82.8010,87.26,1111122 
COMPS,ioos:station:USF.COMPS:FHP:1,2019-01-01T06:48:00Z,28.1530,-82.8010,87.14,1111122 
COMPS,ioos:station:USF.COMPS:FHP:1,2019-01-01T06:54:00Z,28.1530,-82.8010,87.4,1111122 
COMPS,ioos:station:USF.COMPS:FHP:1,2019-01-01T07:00:00Z,28.1530,-82.8010,87.01,1111122 
COMPS,ioos:station:USF.COMPS:FHP:1,2019-01-01T07:06:00Z,28.1530,-82.8010,87.25,1111122 
COMPS,ioos:station:USF.COMPS:FHP:1,2019-01-01T07:12:00Z,28.1530,-82.8010,87.29,1111122 
COMPS,ioos:station:USF.COMPS:FHP:1,2019-01-01T07:18:00Z,28.1530,-82.8010,87.51,1111122 
COMPS,ioos:station:USF.COMPS:FHP:1,2019-01-01T07:24:00Z,28.1530,-82.8010,87.52,1111122 
COMPS,ioos:station:USF.COMPS:FHP:1,2019-01-01T07:30:00Z,28.1530,-82.8010,87.59,1111122 
COMPS,ioos:station:USF.COMPS:FHP:1,2019-01-01T07:36:00Z,28.1530,-82.8010,87.9,1111122 
COMPS,ioos:station:USF.COMPS:FHP:1,2019-01-01T07:42:00Z,28.1530,-82.8010,88.6,1111122 
COMPS,ioos:station:USF.COMPS:FHP:1,2019-01-01T07:48:00Z,28.1530,-82.8010,89.11,1111122 
COMPS,ioos:station:USF.COMPS:FHP:1,2019-01-01T07:54:00Z,28.1530,-82.8010,89.33,1111122 
COMPS,ioos:station:USF.COMPS:FHP:1,2019-01-01T08:00:00Z,28.1530,-82.8010,89.7,1111122 
COMPS,ioos:station:USF.COMPS:FHP:1,2019-01-01T08:06:00Z,28.1530,-82.8010,89.96,1111122 
COMPS,ioos:station:USF.COMPS:FHP:1,2019-01-01T08:12:00Z,28.1530,-82.8010,90.11,1111122 
COMPS,ioos:station:USF.COMPS:FHP:1,2019-01-01T08:18:00Z,28.1530,-82.8010,90.17,1111122 
COMPS,ioos:station:USF.COMPS:FHP:1,2019-01-01T08:24:00Z,28.1530,-82.8010,90.44,1111122 
COMPS,ioos:station:USF.COMPS:FHP:1,2019-01-01T08:30:00Z,28.1530,-82.8010,90.62,1111122 
COMPS,ioos:station:USF.COMPS:FHP:1,2019-01-01T08:36:00Z,28.1530,-82.8010,90.98,1111122 
COMPS,ioos:station:USF.COMPS:FHP:1,2019-01-01T08:42:00Z,28.1530,-82.8010,91.49,1111122 
COMPS,ioos:station:USF.COMPS:FHP:1,2019-01-01T08:48:00Z,28.1530,-82.8010,91.86,1111122 
COMPS,ioos:station:USF.COMPS:FHP:1,2019-01-01T08:54:00Z,28.1530,-82.8010,91.9,1111122 
COMPS,ioos:station:USF.COMPS:FHP:1,2019-01-01T09:00:00Z,28.1530,-82.8010,91.85,1111122 
COMPS,ioos:station:USF.COMPS:FHP:1,2019-01-01T09:06:00Z,28.1530,-82.8010,91.74,1111122 
COMPS,ioos:station:USF.COMPS:FHP:1,2019-01-01T09:12:00Z,28.1530,-82.8010,91.61,1111122 
COMPS,ioos:station:USF.COMPS:FHP:1,2019-01-01T09:18:00Z,28.1530,-82.8010,92.06,1111122 
COMPS,ioos:station:USF.COMPS:FHP:1,2019-01-01T09:24:00Z,28.1530,-82.8010,92.52,1111122 
COMPS,ioos:station:USF.COMPS:FHP:1,2019-01-01T09:30:00Z,28.1530,-82.8010,93.07,1111122 
COMPS,ioos:station:USF.COMPS:FHP:1,2019-01-01T09:36:00Z,28.1530,-82.8010,93.27,1111122 
COMPS,ioos:station:USF.COMPS:FHP:1,2019-01-01T09:42:00Z,28.1530,-82.8010,93.79,1111122 
COMPS,ioos:station:USF.COMPS:FHP:1,2019-01-01T09:48:00Z,28.1530,-82.8010,94.12,1111122 
COMPS,ioos:station:USF.COMPS:FHP:1,2019-01-01T09:54:00Z,28.1530,-82.8010,94.35,1111122 
COMPS,ioos:station:USF.COMPS:FHP:1,2019-01-01T10:00:00Z,28.1530,-82.8010,94.69,1111122 
COMPS,ioos:station:USF.COMPS:FHP:1,2019-01-01T10:06:00Z,28.1530,-82.8010,94.84,1111122 
COMPS,ioos:station:USF.COMPS:FHP:1,2019-01-01T10:12:00Z,28.1530,-82.8010,95.01,1111122 
COMPS,ioos:station:USF.COMPS:FHP:1,2019-01-01T10:18:00Z,28.1530,-82.8010,95.16,1111122 
COMPS,ioos:station:USF.COMPS:FHP:1,2019-01-01T10:24:00Z,28.1530,-82.8010,95.28,1111122 
COMPS,ioos:station:USF.COMPS:FHP:1,2019-01-01T10:30:00Z,28.1530,-82.8010,95.37,1111122 
COMPS,ioos:station:USF.COMPS:FHP:1,2019-01-01T10:36:00Z,28.1530,-82.8010,95.49,1111122 
COMPS,ioos:station:USF.COMPS:FHP:1,2019-01-01T10:42:00Z,28.1530,-82.8010,95.5,1111122 
COMPS,ioos:station:USF.COMPS:FHP:1,2019-01-01T10:48:00Z,28.1530,-82.8010,95.64,1111122 
COMPS,ioos:station:USF.COMPS:FHP:1,2019-01-01T10:54:00Z,28.1530,-82.8010,95.61,1111122 
COMPS,ioos:station:USF.COMPS:FHP:1,2019-01-01T11:00:00Z,28.1530,-82.8010,95.6,1111122 
COMPS,ioos:station:USF.COMPS:FHP:1,2019-01-01T11:06:00Z,28.1530,-82.8010,95.58,1111122 
COMPS,ioos:station:USF.COMPS:FHP:1,2019-01-01T11:12:00Z,28.1530,-82.8010,95.69,1111122 
COMPS,ioos:station:USF.COMPS:FHP:1,2019-01-01T11:18:00Z,28.1530,-82.8010,95.67,1111122 
COMPS,ioos:station:USF.COMPS:FHP:1,2019-01-01T11:24:00Z,28.1530,-82.8010,95.86,1111122 
COMPS,ioos:station:USF.COMPS:FHP:1,2019-01-01T11:30:00Z,28.1530,-82.8010,95.94,1111122 
COMPS,ioos:station:USF.COMPS:FHP:1,2019-01-01T11:36:00Z,28.1530,-82.8010,95.98,1111122 
COMPS,ioos:station:USF.COMPS:FHP:1,2019-01-01T11:42:00Z,28.1530,-82.8010,95.92,1111122 
COMPS,ioos:station:USF.COMPS:FHP:1,2019-01-01T11:48:00Z,28.1530,-82.8010,95.8,1111122 
COMPS,ioos:station:USF.COMPS:FHP:1,2019-01-01T11:54:00Z,28.1530,-82.8010,95.75,1111122 
COMPS,ioos:station:USF.COMPS:FHP:1,2019-01-01T12:00:00Z,28.1530,-82.8010,95.69,1111122 
COMPS,ioos:station:USF.COMPS:FHP:1,2019-01-01T12:06:00Z,28.1530,-82.8010,95.6,1111122 
COMPS,ioos:station:USF.COMPS:FHP:1,2019-01-01T12:12:00Z,28.1530,-82.8010,95.75,1111122 
COMPS,ioos:station:USF.COMPS:FHP:1,2019-01-01T12:18:00Z,28.1530,-82.8010,95.75,1111122 
COMPS,ioos:station:USF.COMPS:FHP:1,2019-01-01T12:24:00Z,28.1530,-82.8010,95.71,1111122 
COMPS,ioos:station:USF.COMPS:FHP:1,2019-01-01T12:30:00Z,28.1530,-82.8010,95.8,1111122 
COMPS,ioos:station:USF.COMPS:FHP:1,2019-01-01T12:36:00Z,28.1530,-82.8010,95.63,1111122 
COMPS,ioos:station:USF.COMPS:FHP:1,2019-01-01T12:42:00Z,28.1530,-82.8010,95.81,1111122 
COMPS,ioos:station:USF.COMPS:FHP:1,2019-01-01T12:48:00Z,28.1530,-82.8010,95.8,1111122 
COMPS,ioos:station:USF.COMPS:FHP:1,2019-01-01T12:54:00Z,28.1530,-82.8010,95.8,1111122 
COMPS,ioos:station:USF.COMPS:FHP:1,2019-01-01T13:00:00Z,28.1530,-82.8010,95.69,1111122 
COMPS,ioos:station:USF.COMPS:FHP:1,2019-01-01T13:06:00Z,28.1530,-82.8010,95.49,1111122 
COMPS,ioos:station:USF.COMPS:FHP:1,2019-01-01T13:12:00Z,28.1530,-82.8010,95.29,1111122 
COMPS,ioos:station:USF.COMPS:FHP:1,2019-01-01T13:18:00Z,28.1530,-82.8010,94.78,1111122 
COMPS,ioos:station:USF.COMPS:FHP:1,2019-01-01T13:24:00Z,28.1530,-82.8010,94.48,1111122 
COMPS,ioos:station:USF.COMPS:FHP:1,2019-01-01T13:30:00Z,28.1530,-82.8010,94.04,1111122 
COMPS,ioos:station:USF.COMPS:FHP:1,2019-01-01T13:36:00Z,28.1530,-82.8010,93.89,1111122 
COMPS,ioos:station:USF.COMPS:FHP:1,2019-01-01T13:42:00Z,28.1530,-82.8010,93.6,1111122 
COMPS,ioos:station:USF.COMPS:FHP:1,2019-01-01T13:48:00Z,28.1530,-82.8010,93.51,1111122 
COMPS,ioos:station:USF.COMPS:FHP:1,2019-01-01T13:54:00Z,28.1530,-82.8010,93.32,1111122 
COMPS,ioos:station:USF.COMPS:FHP:1,2019-01-01T14:00:00Z,28.1530,-82.8010,92.76,1111122 
COMPS,ioos:station:USF.COMPS:FHP:1,2019-01-01T14:06:00Z,28.1530,-82.8010,92.53,1111122 
COMPS,ioos:station:USF.COMPS:FHP:1,2019-01-01T14:12:00Z,28.1530,-82.8010,92.29,1111122 
COMPS,ioos:station:USF.COMPS:FHP:1,2019-01-01T14:18:00Z,28.1530,-82.8010,91.86,1111122 
COMPS,ioos:station:USF.COMPS:FHP:1,2019-01-01T14:24:00Z,28.1530,-82.8010,91.19,1111122 
COMPS,ioos:station:USF.COMPS:FHP:1,2019-01-01T14:30:00Z,28.1530,-82.8010,90.5,1111122 
COMPS,ioos:station:USF.COMPS:FHP:1,2019-01-01T14:36:00Z,28.1530,-82.8010,89.86,1111122 
COMPS,ioos:station:USF.COMPS:FHP:1,2019-01-01T14:42:00Z,28.1530,-82.8010,89.5,1111122 
COMPS,ioos:station:USF.COMPS:FHP:1,2019-01-01T14:48:00Z,28.1530,-82.8010,89.08,1111122 
COMPS,ioos:station:USF.COMPS:FHP:1,2019-01-01T14:54:00Z,28.1530,-82.8010,88.68,1111122 
COMPS,ioos:station:USF.COMPS:FHP:1,2019-01-01T15:00:00Z,28.1530,-82.8010,88.29,1111122 
COMPS,ioos:station:USF.COMPS:FHP:1,2019-01-01T15:06:00Z,28.1530,-82.8010,87.53,1111122 
COMPS,ioos:station:USF.COMPS:FHP:1,2019-01-01T15:12:00Z,28.1530,-82.8010,86.94,1111122 
COMPS,ioos:station:USF.COMPS:FHP:1,2019-01-01T15:18:00Z,28.1530,-82.8010,86.23,1111122 
COMPS,ioos:station:USF.COMPS:FHP:1,2019-01-01T15:24:00Z,28.1530,-82.8010,85.93,1111122 
COMPS,ioos:station:USF.COMPS:FHP:1,2019-01-01T15:30:00Z,28.1530,-82.8010,85.69,1111122 
COMPS,ioos:station:USF.COMPS:FHP:1,2019-01-01T15:36:00Z,28.1530,-82.8010,86.15,1111122 
COMPS,ioos:station:USF.COMPS:FHP:1,2019-01-01T15:42:00Z,28.1530,-82.8010,86.76,1111122 
COMPS,ioos:station:USF.COMPS:FHP:1,2019-01-01T15:48:00Z,28.1530,-82.8010,87.51,1111122 
COMPS,ioos:station:USF.COMPS:FHP:1,2019-01-01T15:54:00Z,28.1530,-82.8010,87.23,1111122 
COMPS,ioos:station:USF.COMPS:FHP:1,2019-01-01T16:00:00Z,28.1530,-82.8010,87.37,1111122 
COMPS,ioos:station:USF.COMPS:FHP:1,2019-01-01T16:06:00Z,28.1530,-82.8010,87.65,1111122 
COMPS,ioos:station:USF.COMPS:FHP:1,2019-01-01T16:12:00Z,28.1530,-82.8010,87.8,1111122 
COMPS,ioos:station:USF.COMPS:FHP:1,2019-01-01T16:18:00Z,28.1530,-82.8010,88.33,1111122 
COMPS,ioos:station:USF.COMPS:FHP:1,2019-01-01T16:24:00Z,28.1530,-82.8010,88.65,1111122 
COMPS,ioos:station:USF.COMPS:FHP:1,2019-01-01T16:30:00Z,28.1530,-82.8010,88.58,1111122 
COMPS,ioos:station:USF.COMPS:FHP:1,2019-01-01T16:36:00Z,28.1530,-82.8010,88.46,1111122 
COMPS,ioos:station:USF.COMPS:FHP:1,2019-01-01T16:42:00Z,28.1530,-82.8010,88.15,1111122 
COMPS,ioos:station:USF.COMPS:FHP:1,2019-01-01T16:48:00Z,28.1530,-82.8010,87.73,1111122 
COMPS,ioos:station:USF.COMPS:FHP:1,2019-01-01T16:54:00Z,28.1530,-82.8010,87.49,1111122 
COMPS,ioos:station:USF.COMPS:FHP:1,2019-01-01T17:00:00Z,28.1530,-82.8010,86.68,1111122 
COMPS,ioos:station:USF.COMPS:FHP:1,2019-01-01T17:06:00Z,28.1530,-82.8010,85.73,1111122 
COMPS,ioos:station:USF.COMPS:FHP:1,2019-01-01T17:12:00Z,28.1530,-82.8010,85.49,1111122 
COMPS,ioos:station:USF.COMPS:FHP:1,2019-01-01T17:18:00Z,28.1530,-82.8010,84.35,1111122 
COMPS,ioos:station:USF.COMPS:FHP:1,2019-01-01T17:24:00Z,28.1530,-82.8010,82.61,1111122 
COMPS,ioos:station:USF.COMPS:FHP:1,2019-01-01T17:30:00Z,28.1530,-82.8010,81.82,1111122 
COMPS,ioos:station:USF.COMPS:FHP:1,2019-01-01T17:36:00Z,28.1530,-82.8010,81.2,1111122 
COMPS,ioos:station:USF.COMPS:FHP:1,2019-01-01T17:42:00Z,28.1530,-82.8010,81.27,1111122 
COMPS,ioos:station:USF.COMPS:FHP:1,2019-01-01T17:48:00Z,28.1530,-82.8010,80.65,1111122 
COMPS,ioos:station:USF.COMPS:FHP:1,2019-01-01T17:54:00Z,28.1530,-82.8010,81.22,1111122 
COMPS,ioos:station:USF.COMPS:FHP:1,2019-01-01T18:00:00Z,28.1530,-82.8010,81.11,1111122 
COMPS,ioos:station:USF.COMPS:FHP:1,2019-01-01T18:06:00Z,28.1530,-82.8010,80.27,1111122 
COMPS,ioos:station:USF.COMPS:FHP:1,2019-01-01T18:12:00Z,28.1530,-82.8010,80.13,1111122 
COMPS,ioos:station:USF.COMPS:FHP:1,2019-01-01T18:18:00Z,28.1530,-82.8010,80.87,1111122 
COMPS,ioos:station:USF.COMPS:FHP:1,2019-01-01T18:24:00Z,28.1530,-82.8010,82.53,1111122 
COMPS,ioos:station:USF.COMPS:FHP:1,2019-01-01T18:30:00Z,28.1530,-82.8010,83.19,1111122 
COMPS,ioos:station:USF.COMPS:FHP:1,2019-01-01T18:36:00Z,28.1530,-82.8010,85.32,1111122 
COMPS,ioos:station:USF.COMPS:FHP:1,2019-01-01T18:42:00Z,28.1530,-82.8010,85.99,1111122 
COMPS,ioos:station:USF.COMPS:FHP:1,2019-01-01T18:48:00Z,28.1530,-82.8010,85.0,1111122 
COMPS,ioos:station:USF.COMPS:FHP:1,2019-01-01T18:54:00Z,28.1530,-82.8010,86.38,1111122 
COMPS,ioos:station:USF.COMPS:FHP:1,2019-01-01T19:00:00Z,28.1530,-82.8010,86.79,1111122 
COMPS,ioos:station:USF.COMPS:FHP:1,2019-01-01T19:06:00Z,28.1530,-82.8010,87.0,1111122 
COMPS,ioos:station:USF.COMPS:FHP:1,2019-01-01T19:12:00Z,28.1530,-82.8010,86.91,1111122 
COMPS,ioos:station:USF.COMPS:FHP:1,2019-01-01T19:18:00Z,28.1530,-82.8010,87.24,1111122 
COMPS,ioos:station:USF.COMPS:FHP:1,2019-01-01T19:24:00Z,28.1530,-82.8010,87.48,1111122 
COMPS,ioos:station:USF.COMPS:FHP:1,2019-01-01T19:30:00Z,28.1530,-82.8010,87.38,1111122 
COMPS,ioos:station:USF.COMPS:FHP:1,2019-01-01T19:36:00Z,28.1530,-82.8010,87.03,1111122 
COMPS,ioos:station:USF.COMPS:FHP:1,2019-01-01T19:42:00Z,28.1530,-82.8010,87.12,1111122 
COMPS,ioos:station:USF.COMPS:FHP:1,2019-01-01T19:48:00Z,28.1530,-82.8010,86.96,1111122 
COMPS,ioos:station:USF.COMPS:FHP:1,2019-01-01T19:54:00Z,28.1530,-82.8010,86.93,1111122 
COMPS,ioos:station:USF.COMPS:FHP:1,2019-01-01T20:00:00Z,28.1530,-82.8010,86.15,1111122 
COMPS,ioos:station:USF.COMPS:FHP:1,2019-01-01T20:06:00Z,28.1530,-82.8010,86.16,1111122 
COMPS,ioos:station:USF.COMPS:FHP:1,2019-01-01T20:12:00Z,28.1530,-82.8010,85.92,1111122 
COMPS,ioos:station:USF.COMPS:FHP:1,2019-01-01T20:18:00Z,28.1530,-82.8010,86.25,1111122 
COMPS,ioos:station:USF.COMPS:FHP:1,2019-01-01T20:24:00Z,28.1530,-82.8010,85.99,1111122 
COMPS,ioos:station:USF.COMPS:FHP:1,2019-01-01T20:30:00Z,28.1530,-82.8010,85.89,1111122 
COMPS,ioos:station:USF.COMPS:FHP:1,2019-01-01T20:36:00Z,28.1530,-82.8010,85.92,1111122 
COMPS,ioos:station:USF.COMPS:FHP:1,2019-01-01T20:42:00Z,28.1530,-82.8010,85.8,1111122 
COMPS,ioos:station:USF.COMPS:FHP:1,2019-01-01T20:48:00Z,28.1530,-82.8010,85.55,1111122 
COMPS,ioos:station:USF.COMPS:FHP:1,2019-01-01T20:54:00Z,28.1530,-82.8010,85.63,1111122 
COMPS,ioos:station:USF.COMPS:FHP:1,2019-01-01T21:00:00Z,28.1530,-82.8010,85.37,1111122 
COMPS,ioos:station:USF.COMPS:FHP:1,2019-01-01T21:06:00Z,28.1530,-82.8010,84.94,1111122 
COMPS,ioos:station:USF.COMPS:FHP:1,2019-01-01T21:12:00Z,28.1530,-82.8010,85.21,1111122 
COMPS,ioos:station:USF.COMPS:FHP:1,2019-01-01T21:18:00Z,28.1530,-82.8010,83.55,1111122 
COMPS,ioos:station:USF.COMPS:FHP:1,2019-01-01T21:24:00Z,28.1530,-82.8010,82.44,1111122 
COMPS,ioos:station:USF.COMPS:FHP:1,2019-01-01T21:30:00Z,28.1530,-82.8010,81.57,1111122 
COMPS,ioos:station:USF.COMPS:FHP:1,2019-01-01T21:36:00Z,28.1530,-82.8010,82.97,1111122 
COMPS,ioos:station:USF.COMPS:FHP:1,2019-01-01T21:42:00Z,28.1530,-82.8010,80.9,1111122 
COMPS,ioos:station:USF.COMPS:FHP:1,2019-01-01T21:48:00Z,28.1530,-82.8010,80.37,1111122 
COMPS,ioos:station:USF.COMPS:FHP:1,2019-01-01T21:54:00Z,28.1530,-82.8010,80.28,1111122 
COMPS,ioos:station:USF.COMPS:FHP:1,2019-01-01T22:00:00Z,28.1530,-82.8010,80.68,1111122 
COMPS,ioos:station:USF.COMPS:FHP:1,2019-01-01T22:06:00Z,28.1530,-82.8010,80.65,1111122 
COMPS,ioos:station:USF.COMPS:FHP:1,2019-01-01T22:12:00Z,28.1530,-82.8010,81.97,1111122 
COMPS,ioos:station:USF.COMPS:FHP:1,2019-01-01T22:18:00Z,28.1530,-82.8010,83.12,1111122 
COMPS,ioos:station:USF.COMPS:FHP:1,2019-01-01T22:24:00Z,28.1530,-82.8010,83.73,1111122 
COMPS,ioos:station:USF.COMPS:FHP:1,2019-01-01T22:30:00Z,28.1530,-82.8010,84.76,1111122 
COMPS,ioos:station:USF.COMPS:FHP:1,2019-01-01T22:36:00Z,28.1530,-82.8010,86.55,1111122 
COMPS,ioos:station:USF.COMPS:FHP:1,2019-01-01T22:42:00Z,28.1530,-82.8010,87.47,1111122 
COMPS,ioos:station:USF.COMPS:FHP:1,2019-01-01T22:48:00Z,28.1530,-82.8010,87.6,1111122 
COMPS,ioos:station:USF.COMPS:FHP:1,2019-01-01T22:54:00Z,28.1530,-82.8010,87.76,1111122 
COMPS,ioos:station:USF.COMPS:FHP:1,2019-01-01T23:00:00Z,28.1530,-82.8010,87.85,1111122 
COMPS,ioos:station:USF.COMPS:FHP:1,2019-01-01T23:06:00Z,28.1530,-82.8010,87.95,1111122 
COMPS,ioos:station:USF.COMPS:FHP:1,2019-01-01T23:12:00Z,28.1530,-82.8010,88.33,1111122 
COMPS,ioos:station:USF.COMPS:FHP:1,2019-01-01T23:18:00Z,28.1530,-82.8010,88.49,1111122 
COMPS,ioos:station:USF.COMPS:FHP:1,2019-01-01T23:24:00Z,28.1530,-82.8010,88.9,1111122 
COMPS,ioos:station:USF.COMPS:FHP:1,2019-01-01T23:30:00Z,28.1530,-82.8010,89.38,1111122 
COMPS,ioos:station:USF.COMPS:FHP:1,2019-01-01T23:36:00Z,28.1530,-82.8010,89.82,1111122 
COMPS,ioos:station:USF.COMPS:FHP:1,2019-01-01T23:42:00Z,28.1530,-82.8010,90.15,1111122 
COMPS,ioos:station:USF.COMPS:FHP:1,2019-01-01T23:48:00Z,28.1530,-82.8010,90.94,1111122 
COMPS,ioos:station:USF.COMPS:FHP:1,2019-01-01T23:54:00Z,28.1530,-82.8010,91.26,1111122 
COMPS,ioos:station:USF.COMPS:FHP:1,2019-01-02T00:00:00Z,28.1530,-82.8010,91.51,1111122 
COMPS,ioos:station:USF.COMPS:FHP:1,2019-01-02T00:06:00Z,28.1530,-82.8010,91.64,1111122 
COMPS,ioos:station:USF.COMPS:FHP:1,2019-01-02T00:12:00Z,28.1530,-82.8010,91.91,1111122 
COMPS,ioos:station:USF.COMPS:FHP:1,2019-01-02T00:18:00Z,28.1530,-82.8010,92.1,1111122 
COMPS,ioos:station:USF.COMPS:FHP:1,2019-01-02T00:24:00Z,28.1530,-82.8010,92.25,1111122 
COMPS,ioos:station:USF.COMPS:FHP:1,2019-01-02T00:30:00Z,28.1530,-82.8010,92.69,1111122 
COMPS,ioos:station:USF.COMPS:FHP:1,2019-01-02T00:36:00Z,28.1530,-82.8010,93.04,1111122 
COMPS,ioos:station:USF.COMPS:FHP:1,2019-01-02T00:42:00Z,28.1530,-82.8010,93.21,1111122 
COMPS,ioos:station:USF.COMPS:FHP:1,2019-01-02T00:48:00Z,28.1530,-82.8010,93.37,1111122 
COMPS,ioos:station:USF.COMPS:FHP:1,2019-01-02T00:54:00Z,28.1530,-82.8010,93.57,1111122 
COMPS,ioos:station:USF.COMPS:FHP:1,2019-01-02T01:00:00Z,28.1530,-82.8010,93.94,1111122 
COMPS,ioos:station:USF.COMPS:FHP:1,2019-01-02T01:06:00Z,28.1530,-82.8010,94.09,1111122 
COMPS,ioos:station:USF.COMPS:FHP:1,2019-01-02T01:12:00Z,28.1530,-82.8010,94.26,1111122 
COMPS,ioos:station:USF.COMPS:FHP:1,2019-01-02T01:18:00Z,28.1530,-82.8010,94.1,1111122 
COMPS,ioos:station:USF.COMPS:FHP:1,2019-01-02T01:24:00Z,28.1530,-82.8010,94.58,1111122 
COMPS,ioos:station:USF.COMPS:FHP:1,2019-01-02T01:30:00Z,28.1530,-82.8010,94.86,1111122 
COMPS,ioos:station:USF.COMPS:FHP:1,2019-01-02T01:36:00Z,28.1530,-82.8010,94.91,1111122 
COMPS,ioos:station:USF.COMPS:FHP:1,2019-01-02T01:42:00Z,28.1530,-82.8010,95.32,1111122 
COMPS,ioos:station:USF.COMPS:FHP:1,2019-01-02T01:48:00Z,28.1530,-82.8010,95.25,1111122 
COMPS,ioos:station:USF.COMPS:FHP:1,2019-01-02T01:54:00Z,28.1530,-82.8010,95.32,1111122 
COMPS,ioos:station:USF.COMPS:FHP:1,2019-01-02T02:00:00Z,28.1530,-82.8010,95.55,1111122 
COMPS,ioos:station:USF.COMPS:FHP:1,2019-01-02T02:06:00Z,28.1530,-82.8010,95.64,1111122 
COMPS,ioos:station:USF.COMPS:FHP:1,2019-01-02T02:12:00Z,28.1530,-82.8010,95.68,1111122 
COMPS,ioos:station:USF.COMPS:FHP:1,2019-01-02T02:18:00Z,28.1530,-82.8010,95.76,1111122 
COMPS,ioos:station:USF.COMPS:FHP:1,2019-01-02T02:24:00Z,28.1530,-82.8010,95.69,1111122 
COMPS,ioos:station:USF.COMPS:FHP:1,2019-01-02T02:30:00Z,28.1530,-82.8010,95.7,1111122 
COMPS,ioos:station:USF.COMPS:FHP:1,2019-01-02T02:36:00Z,28.1530,-82.8010,95.81,1111122 
COMPS,ioos:station:USF.COMPS:FHP:1,2019-01-02T02:42:00Z,28.1530,-82.8010,95.77,1111122 
COMPS,ioos:station:USF.COMPS:FHP:1,2019-01-02T02:48:00Z,28.1530,-82.8010,95.89,1111122 
COMPS,ioos:station:USF.COMPS:FHP:1,2019-01-02T02:54:00Z,28.1530,-82.8010,95.96,1111122 
COMPS,ioos:station:USF.COMPS:FHP:1,2019-01-02T03:00:00Z,28.1530,-82.8010,96.06,1111122 
COMPS,ioos:station:USF.COMPS:FHP:1,2019-01-02T03:06:00Z,28.1530,-82.8010,96.11,1111122 